CZ-3B DEB, 40193

Orbit data source: Space-Track

CZ-3B DEB, 40193 is space debris in HEO originally from a launch on Mon, 19 Dec 2011 UTC launched from the Xichang Space Center, China (XSC). Debris objects in space refer to the collection of defunct objects orbiting the Earth. Examples of debris include non-operational satellites, rocket bodies, and fragments generated from explosions, collisions, or faulty payload assembly.

Loading next visibility...
CZ-3B DEB details
Identifier
40193, 2011-077S
Orbit
HEO
Last TLE update2 days ago
Origin
Flag of CNCASC (CN / PRC)
ManufacturerCALT
MissionSpacecraft
Bus & MotorUnknown
MassUnknown
Launch date (UTC)
2011-12-19 (13 years ago)
Launch vehicleUnknown
Launch site
Xichang Space Center, China (XSC)
Object type
Payload
Rocket body
Debris
Shape & HBRUnknown
Radar Cross SectionMedium (>0.1 m² and <1 m²)

Expand to show TLE details & history

TLE from 2 days ago
0 CZ-3B DEB
1 40193U 11077S   24360.20347457 -.00000009  00000-0  17747-3 0  9999
2 40193  25.1270 171.2736 7468956 101.4798 342.9020  1.86773522 66089
Epoch: 2024-12-25T04:53Z
Definitive object data (Epoch: 2024-12-25T04:53:00.202Z)
Latitude0.00002°
Longitude3.82822°
Altitude8,032.847 km
Speed6.403 km/s
True Right ascension11h 25m 07s
True Declination0° 00' 00"
Sunlit
Object was in daylight at TLE epoch
Visualization TLE readout
Latitude-3.923°
Longitude-5.02482°
Altitude10,513.377 km
Speed5.734 km/s
Apparent Right ascension09h 58m 16s
Apparent Declination-14° 56' 12"
Sunlit
Object is in daylight
Visualization observer readout
Local Sidereal Time18:38:26
Azimuth285.216° WNW
Elevation-39.954°
Doppler factor1
Orbital elements
Apogee altitude42,283.499 km
Perigee altitude672.355 km
Semi-major axis27,856.064 km
Eccentricity0.7468956
Inclination25.127°
RAAN171.2736°
Arg. of periapsis101.4798°
True anomaly258.74507°
Mean anomaly342.902°
Eccentric anomaly310.23117°
Mean motion0.46684 °/min
BSTAR0.00017747
Orbital period771.15 mins
Loading maneuver chart data...
Loading historical data...
Loading historical data...
Loading historical data...
Loading historical data...
Loading historical data...
Loading historical data...
Loading historical data...

CZ-3B DEB Visibility forecast

Observer location: undefined°, undefined

Span
Click to sort rows by Start time (UTC) header in descending order
Start Az.
Max El. time (UTC)
Max El. Az.
Max El.
End time (UTC)
End Az.
103 mins2024-12-27 06:01:48.777Z139.839° SSE2024-12-27 07:06:48.777Z139.258° SSE11.981°2024-12-27 07:44:48.777Z132.204° SE
|